K4CRS-13 Weather Reports


Display with metric or nautical units.
time (UTC)temp
F
wind
direction
speed
MPH
gust
MPH
rain 1hr
in
rain 24hr
in
rain mn
in
humidity
%
barometer
mb
20260505024923 58 158 0.0 0.0 0.00 0.00 0.00 83 1047.6
20260505024419 58 153 0.0 1.0 0.00 0.00 0.00 83 1047.3
20260505023916 58 153 0.0 0.0 0.00 0.00 0.00 83 1047.6
20260505023413 58 170 0.0 0.0 0.00 0.00 0.00 83 1047.5
20260505022911 58 171 0.0 0.0 0.00 0.00 0.00 83 1047.3
20260505022408 58 143 0.0 1.0 0.00 0.00 0.00 83 1047.5
20260505021905 58 173 0.0 0.0 0.00 0.00 0.00 82 1047.3
20260505021401 59 170 0.0 0.0 0.00 0.00 0.00 81 1047.4
20260505020857 59 164 0.0 0.0 0.00 0.00 0.00 81 1047.3
20260505020353 59 153 0.0 0.0 0.00 0.00 0.00 80 1047.4
20260505015850 59 163 0.0 0.0 0.00 0.00 0.00 80 1047.2
20260505015347 60 158 0.0 0.0 0.00 0.00 0.00 79 1047.4
20260505014844 60 164 0.0 0.0 0.00 0.00 0.00 78 1047.4
20260505014341 61 159 0.0 0.0 0.00 0.00 0.00 77 1047.3
20260505013838 61 156 0.0 1.0 0.00 0.00 0.00 75 1047.3
20260505013335 61 166 0.0 0.0 0.00 0.00 0.00 74 1047.1
20260505012833 62 163 0.0 0.0 0.00 0.00 0.00 74 1047.2
20260505012331 62 166 0.0 0.0 0.00 0.00 0.00 73 1047.1
20260505011826 63 168 0.0 0.0 0.00 0.00 0.00 71 1047.0
20260505011324 63 168 0.0 1.0 0.00 0.00 0.00 70 1047.2
20260505010819 64 165 0.0 0.0 0.00 0.00 0.00 69 1047.1
20260505010315 64 149 0.0 0.0 0.00 0.00 0.00 67 1047.0
20260505005812 64 156 0.0 0.0 0.00 0.00 0.00 67 1047.2
20260505005309 64 162 0.0 0.0 0.00 0.00 0.00 66 1047.2
20260505004807 65 166 0.0 0.0 0.00 0.00 0.00 65 1046.8
20260505004302 66 163 0.0 0.0 0.00 0.00 0.00 64 1047.0
20260505003800 67 173 0.0 0.0 0.00 0.00 0.00 63 1046.9
20260505003257 67 171 0.0 0.0 0.00 0.00 0.00 60 1046.9
20260505002754 68 171 0.0 0.0 0.00 0.00 0.00 58 1046.8
20260505002251 70 169 0.0 0.0 0.00 0.00 0.00 56 1046.9
20260505001749 71 169 0.0 1.0 0.00 0.00 0.00 55 1046.8
20260505001246 71 170 1.0 1.0 0.00 0.00 0.00 53 1046.8
20260505000743 72 182 2.0 2.0 0.00 0.00 0.00 51 1046.8
20260505000241 73 176 1.0 2.0 0.00 0.00 0.00 50 1046.8
20260504235737 74 167 1.0 2.0 0.00 0.00 0.00 48 1046.6
20260504235233 74 184 2.0 3.0 0.00 0.00 0.00 47 1046.9
20260504234730 74 181 3.0 5.0 0.00 0.00 0.00 46 1046.7
20260504234228 75 182 3.0 5.0 0.00 0.00 0.00 46 1046.9
20260504233724 75 171 0.0 3.0 0.00 0.00 0.00 45 1047.0
20260504233220 75 181 2.0 5.0 0.00 0.00 0.00 45 1046.9
20260504232717 75 181 2.0 3.0 0.00 0.00 0.00 45 1046.8
20260504232214 76 181 3.0 3.0 0.00 0.00 0.00 44 1046.8
20260504231711 76 193 3.0 5.0 0.00 0.00 0.00 44 1047.1
20260504231207 76 180 3.0 3.0 0.00 0.00 0.00 43 1046.9
20260504230703 76 179 4.0 5.0 0.00 0.00 0.00 42 1046.8
20260504230202 76 196 2.0 5.0 0.00 0.00 0.00 42 1047.0
20260504225700 77 175 3.0 3.0 0.00 0.00 0.00 44 1047.0
20260504225155 77 156 3.0 5.0 0.00 0.00 0.00 42 1047.1
20260504224653 77 189 2.0 2.0 0.00 0.00 0.00 43 1047.0
20260504224150 76 180 3.0 5.0 0.00 0.00 0.00 43 1047.2
20260504223647 76 167 2.0 5.0 0.00 0.00 0.00 42 1047.1
20260504223142 77 185 4.0 5.0 0.00 0.00 0.00 43 1047.1
20260504222640 78 178 4.0 7.0 0.00 0.00 0.00 42 1047.0
20260504222136 78 183 3.0 5.0 0.00 0.00 0.00 42 1047.0
20260504221634 78 165 2.0 5.0 0.00 0.00 0.00 41 1047.3
20260504221131 78 141 1.0 2.0 0.00 0.00 0.00 42 1047.3
20260504220627 77 186 3.0 6.0 0.00 0.00 0.00 42 1047.3
20260504220125 77 163 3.0 5.0 0.00 0.00 0.00 43 1047.2
20260504215621 77 185 3.0 5.0 0.00 0.00 0.00 43 1047.3
20260504215119 77 181 5.0 7.0 0.00 0.00 0.00 43 1047.5
20260504214614 77 203 3.0 5.0 0.00 0.00 0.00 45 1047.5
20260504214111 79 192 3.0 3.0 0.00 0.00 0.00 44 1047.4
20260504213607 78 179 1.0 5.0 0.00 0.00 0.00 43 1047.4
20260504213104 78 190 3.0 8.0 0.00 0.00 0.00 41 1047.5
20260504212600 79 203 3.0 6.0 0.00 0.00 0.00 42 1047.2
20260504212058 79 186 2.0 3.0 0.00 0.00 0.00 42 1047.5
20260504211554 79 196 3.0 7.0 0.00 0.00 0.00 41 1047.6
20260504211051 79 197 2.0 2.0 0.00 0.00 0.00 42 1047.3
20260504210549 79 197 3.0 5.0 0.00 0.00 0.00 42 1047.5
20260504210045 79 182 2.0 2.0 0.00 0.00 0.00 42 1047.6
20260504205543 79 143 3.0 5.0 0.00 0.00 0.00 42 1047.7
20260504205041 79 180 4.0 7.0 0.00 0.00 0.00 39 1047.7
20260504204538 79 156 3.0 6.0 0.00 0.00 0.00 40 1048.0
20260504204037 79 196 1.0 2.0 0.00 0.00 0.00 41 1047.9
20260504203535 79 150 5.0 8.0 0.00 0.00 0.00 40 1048.1
20260504203032 79 173 4.0 7.0 0.00 0.00 0.00 39 1048.2
20260504202527 79 175 4.0 6.0 0.00 0.00 0.00 40 1048.1
20260504202025 80 181 4.0 5.0 0.00 0.00 0.00 39 1048.2
20260504201521 79 193 4.0 6.0 0.00 0.00 0.00 40 1048.3
20260504201020 79 202 2.0 5.0 0.00 0.00 0.00 42 1048.7
20260504200515 80 195 2.0 7.0 0.00 0.00 0.00 39 1048.2
20260504200012 80 247 3.0 7.0 0.00 0.00 0.00 38 1048.3
20260504195508 81 199 5.0 8.0 0.00 0.00 0.00 39 1048.3
20260504195005 81 180 3.0 3.0 0.00 0.00 0.00 40 1048.4
20260504194501 80 193 1.0 3.0 0.00 0.00 0.00 43 1048.9
20260504193957 80 172 3.0 5.0 0.00 0.00 0.00 39 1048.7
20260504193454 80 191 1.0 2.0 0.00 0.00 0.00 41 1048.7
20260504192953 80 193 2.0 2.0 0.00 0.00 0.00 44 1048.9
20260504192450 81 163 0.0 1.0 0.00 0.00 0.00 45 1048.9
20260504191949 80 195 3.0 3.0 0.00 0.00 0.00 43 1048.7
20260504191446 80 199 3.0 3.0 0.00 0.00 0.00 42 1048.9
20260504190941 80 211 1.0 2.0 0.00 0.00 0.00 46 1048.9
20260504190438 80 218 1.0 5.0 0.00 0.00 0.00 45 1048.7
20260504185934 79 197 2.0 3.0 0.00 0.00 0.00 45 1049.0
20260504185432 78 176 3.0 3.0 0.00 0.00 0.00 44 1049.3
20260504184927 78 203 5.0 8.0 0.00 0.00 0.00 44 1049.2
20260504184423 80 230 3.0 5.0 0.00 0.00 0.00 43 1049.2
20260504183920 79 168 2.0 5.0 0.00 0.00 0.00 47 1049.1
20260504183417 78 179 0.0 3.0 0.00 0.00 0.00 49 1049.5
20260504182915 78 186 3.0 3.0 0.00 0.00 0.00 47 1049.4
20260504182411 77 188 4.0 6.0 0.00 0.00 0.00 50 1049.4
20260504181908 77 171 3.0 3.0 0.00 0.00 0.00 53 1049.4
20260504181406 75 172 1.0 2.0 0.00 0.00 0.00 51 1049.6
20260504180904 75 260 5.0 5.0 0.00 0.00 0.00 52 1049.7
20260504180403 75 155 3.0 3.0 0.00 0.00 0.00 52 1049.7
20260504175901 78 255 7.0 9.0 0.00 0.00 0.00 45 1049.7
20260504175357 78 191 2.0 5.0 0.00 0.00 0.00 47 1049.9
20260504174855 77 189 1.0 5.0 0.00 0.00 0.00 49 1050.0
20260504174352 77 186 4.0 5.0 0.00 0.00 0.00 49 1049.9
20260504173849 76 187 1.0 2.0 0.00 0.00 0.00 52 1050.0
20260504173346 77 171 5.0 6.0 0.00 0.00 0.00 48 1050.2
20260504172843 77 193 2.0 2.0 0.00 0.00 0.00 52 1050.0
20260504172339 76 178 0.0 3.0 0.00 0.00 0.00 54 1050.3
20260504171835 76 218 7.0 11.0 0.00 0.00 0.00 49 1050.5
20260504171332 76 178 3.0 5.0 0.00 0.00 0.00 50 1050.6
20260504170830 77 180 1.0 6.0 0.00 0.00 0.00 50 1050.3
20260504170326 78 187 2.0 3.0 0.00 0.00 0.00 53 1050.5
20260504160245 73 229 1.0 5.0 0.00 0.00 0.00 55 1051.4
20260504150710 71 164 1.0 2.0 0.00 0.00 0.00 58 1051.6
20260504150207 70 180 1.0 5.0 0.00 0.00 0.00 59 1051.7
20260504141136 68 158 3.0 3.0 0.00 0.00 0.00 63 1051.7
20260504140633 67 180 1.0 2.0 0.00 0.00 0.00 62 1051.5
20260504140128 66 180 2.0 2.0 0.00 0.00 0.00 64 1051.8
20260504130556 59 159 0.0 0.0 0.00 0.00 0.00 83 1052.0
20260504110444 43 161 0.0 0.0 0.00 0.00 0.00 99 1051.3
20260504100407 42 151 0.0 0.0 0.00 0.00 0.00 99 1051.1
20260504081800 43 161 0.0 0.0 0.00 0.00 0.00 99 1051.0
20260504081256 43 151 0.0 0.0 0.00 0.00 0.00 99 1051.0
20260504080753 43 148 0.0 1.0 0.00 0.00 0.00 99 1050.8
20260504080249 43 151 0.0 1.0 0.00 0.00 0.00 99 1050.8
20260504070217 44 151 0.0 0.0 0.00 0.00 0.00 98 1051.6
20260504060137 44 160 0.0 0.0 0.00 0.00 0.00 98 1052.4
20260504050606 45 165 0.0 0.0 0.00 0.00 0.00 97 1052.4
20260504045559 45 164 0.0 0.0 0.00 0.00 0.00 97 1052.4
20260504045054 45 157 0.0 0.0 0.00 0.00 0.00 97 1052.3
20260504044553 45 144 0.0 1.0 0.00 0.00 0.00 97 1052.6
20260504044049 45 147 0.0 0.0 0.00 0.00 0.00 97 1052.6
20260504043547 46 156 0.0 0.0 0.00 0.00 0.00 96 1053.0
20260504043044 46 147 0.0 1.0 0.00 0.00 0.00 96 1052.6
20260504042540 46 190 1.0 1.0 0.00 0.00 0.00 96 1052.9
20260504042038 46 140 0.0 1.0 0.00 0.00 0.00 96 1052.8
20260504041533 46 124 1.0 1.0 0.00 0.00 0.00 96 1052.5
20260504041029 47 142 0.0 1.0 0.00 0.00 0.00 96 1052.9
20260504040527 47 158 0.0 0.0 0.00 0.00 0.00 96 1052.9
20260504040024 47 163 0.0 0.0 0.00 0.00 0.00 96 1052.8
20260504035521 47 158 0.0 0.0 0.00 0.00 0.00 96 1052.6
20260504035017 47 162 0.0 0.0 0.00 0.00 0.00 95 1052.9
20260504034515 47 168 0.0 0.0 0.00 0.00 0.00 95 1052.8
20260504034012 47 169 0.0 0.0 0.00 0.00 0.00 95 1053.0
20260504033509 47 166 0.0 0.0 0.00 0.00 0.00 95 1052.9
20260504033007 48 166 0.0 0.0 0.00 0.00 0.00 95 1052.6
20260504032503 48 165 0.0 0.0 0.00 0.00 0.00 95 1052.8
20260504032000 48 158 0.0 0.0 0.00 0.00 0.00 95 1052.9
20260504031456 48 144 1.0 1.0 0.00 0.00 0.00 94 1052.6
20260504030953 48 143 0.0 1.0 0.00 0.00 0.00 94 1053.0
20260504030451 48 154 0.0 0.0 0.00 0.00 0.00 94 1052.6
20260504025946 49 156 0.0 1.0 0.00 0.00 0.00 94 1052.8
20260504025443 49 148 0.0 1.0 0.00 0.00 0.00 93 1052.5